Regional Weather Roundup
Issued by NWS

Home | Current Version | Previous Version | Graphics & Text | Print | Product List | Glossary On
Versions: 1 2 3 4 5 6 7 8 9 10 11 12 13 14 15 16 17 18 19 20 21 22 23 24 25 26 27 28 29 30 31 32 33 34 35 36 37 38 39 40 41 42 43 44 45 46 47 48 49 50
867
ASUS44 KMEG 021100
RWRTN
TENNESSEE HOURLY STATE WEATHER ROUNDUP
NATIONAL WEATHER SERVICE MEMPHIS TN
500 AM CST FRI DEC 02 2016

TNZ002-004-019-021-049-052-054-088>092-021200-
WEST TENNESSEE

CITY           SKY/WX    TMP DP  RH WIND       PRES   REMARKS
MEMPHIS INTL   CLEAR     37  30  75 CALM      30.19R
NWS MEMPHIS      N/A     32 N/A N/A MISG        N/A
JACKSON        PTCLDY    29  27  92 CALM      30.20R
DYERSBURG      CLEAR    N/A N/A N/A CALM      30.20S
PARIS          CLEAR     27  23  86 CALM      30.18S
$$

TNZ008-025-027-028-033-062-065-066-021200-
NORTH MIDDLE TENNESSEE

CITY           SKY/WX    TMP DP  RH WIND       PRES   REMARKS
NASHVILLE      CLEAR     31  27  85 S3        30.20R
CLARKSVILLE    CLEAR     28  25  88 SE3       30.18S
SMYRNA         CLEAR     27  26  96 SE3       30.22R
CROSSVILLE     CLEAR     28  24  85 CALM      30.16S
$$

TNZ061-075-076-078-094-096-097-021200-
SOUTH MIDDLE TENNESSEE

CITY           SKY/WX    TMP DP  RH WIND       PRES   REMARKS
TULLAHOMA      CLEAR     27  23  86 CALM      30.19R
WINCHESTER     CLEAR     25  25 100 CALM      30.20R
SHELBYVILLE    CLEAR     30  28  93 E5        30.21R WCI  25
$$

TNZ017-018-042-046-047-021200-
NORTHEAST TENNESSEE

CITY           SKY/WX    TMP DP  RH WIND       PRES   REMARKS
TRI CITIES     FOG       27  25  92 CALM      30.16R VSB 1
$$

TNZ012-013-036-069-073-074-021200-
CENTRAL EAST TENNESSEE

CITY           SKY/WX    TMP DP  RH WIND       PRES   REMARKS
KNOXVILLE      CLEAR     32  29  88 CALM      30.19R
OAK RIDGE      CLEAR     31  27  85 CALM      30.21R
GATLINBURG     CLEAR     27  25  93 CALM      30.19R
$$

TNZ083-085-099-021200-
SOUTHEAST TENNESSEE

CITY           SKY/WX    TMP DP  RH WIND       PRES   REMARKS
CHATTANOOGA    CLEAR     33  31  92 CALM      30.20S
$$

SKY/WX REPORTED AS FAIR MEANS FEW OR NO CLOUDS BELOW
12 THOUSAND FEET.





USA.gov is the U.S. government's official web portal to all federal, state and local government web resources and services.